User: anonymous   Login
Location: Montr�al
(45.5000°N, 73.5830°W)
Time: 04:24:50
(UTC-04:00)
Language:

Cosmos 2369 - Orbit

View from above orbital plane
View from above orbital plane
View from above satellite
View from above satellite

Ground track
Ground track

The orbit data is extracted from the following two-line orbital elements,

1 26069U 00006A   15149.45083365  .00000194  00000-0  12874-3 0  9992
2 26069 070.9917 129.6057 0012678 281.8032 228.0906 14.13287821790196
Epoch (UTC): 29 May 2015 10:49:12
Eccentricity: 0.0012678
inclination: 70.9917°
perigee height: 839 km
apogee height: 857 km
right ascension of ascending node: 129.6057°
argument of perigee: 281.8032°
revolutions per day: 14.13287821
mean anomaly at epoch: 228.0906°
orbit number at epoch: 79019

The dashed part of the orbit path shows where the satellite is in the earth's shadow,  

DLR